Time,TemperatureF,DewpointF,PressureIn,WindDirection,WindDirectionDegrees,WindSpeedMPH,WindSpeedGustMPH,Humidity,HourlyPrecipIn,Conditions,Clouds,dailyrainin,SoftwareType,DateUTC
2013-02-28 00:06:00,46.5,45.0,30.34,SW,223,4.0,-999.0,93,-99.99,,,0.01,weatherlink.com 1.10,2013-02-28 08:06:00,
2013-02-28 00:20:00,46.9,45.0,30.35,South,179,0.0,-999.0,94,-99.99,,,0.00,weatherlink.com 1.10,2013-02-28 08:20:00,
2013-02-28 00:36:00,47.3,46.0,30.35,SE,139,2.0,-999.0,94,-99.99,,,0.00,weatherlink.com 1.10,2013-02-28 08:36:00,
2013-02-28 00:50:00,47.3,45.0,30.34,SSW,196,2.0,-999.0,93,-99.99,,,0.00,weatherlink.com 1.10,2013-02-28 08:50:00,
2013-02-28 01:05:00,47.0,45.0,30.35,SW,219,0.0,-999.0,93,-99.99,,,0.00,weatherlink.com 1.10,2013-02-28 09:05:00,
2013-02-28 01:21:00,47.0,45.0,30.35,SW,219,0.0,-999.0,94,-99.99,,,0.00,weatherlink.com 1.10,2013-02-28 09:21:00,
2013-02-28 01:35:00,47.2,46.0,30.36,SW,219,1.0,-999.0,94,-99.99,,,0.00,weatherlink.com 1.10,2013-02-28 09:35:00,
2013-02-28 01:51:00,47.2,46.0,30.36,SW,220,1.0,-999.0,94,-99.99,,,0.00,weatherlink.com 1.10,2013-02-28 09:51:00,
2013-02-28 02:05:00,47.3,46.0,30.35,SW,220,0.0,-999.0,94,-99.99,,,0.00,weatherlink.com 1.10,2013-02-28 10:05:00,
2013-02-28 02:20:00,47.3,46.0,30.35,SW,220,0.0,-999.0,94,-99.99,,,0.00,weatherlink.com 1.10,2013-02-28 10:20:00,
2013-02-28 02:35:00,47.5,46.0,30.36,SW,220,0.0,-999.0,94,-99.99,,,0.00,weatherlink.com 1.10,2013-02-28 10:35:00,
2013-02-28 02:50:00,47.6,46.0,30.35,SW,220,0.0,-999.0,94,-99.99,,,0.00,weatherlink.com 1.10,2013-02-28 10:50:00,
2013-02-28 03:05:00,47.9,46.0,30.35,SSW,199,1.0,-999.0,94,-99.99,,,0.00,weatherlink.com 1.10,2013-02-28 11:05:00,
2013-02-28 03:21:00,48.1,47.0,30.34,SW,221,1.0,-999.0,94,-99.99,,,0.00,weatherlink.com 1.10,2013-02-28 11:21:00,
2013-02-28 03:35:00,48.0,46.0,30.34,SSW,207,0.0,-999.0,94,-99.99,,,0.00,weatherlink.com 1.10,2013-02-28 11:35:00,
2013-02-28 03:51:00,47.9,46.0,30.35,SSW,197,1.0,-999.0,94,-99.99,,,0.00,weatherlink.com 1.10,2013-02-28 11:51:00,
2013-02-28 04:05:00,47.9,46.0,30.35,SSW,197,0.0,-999.0,94,-99.99,,,0.00,weatherlink.com 1.10,2013-02-28 12:05:00,
2013-02-28 04:20:00,47.9,46.0,30.35,SSW,197,0.0,-999.0,94,-99.99,,,0.00,weatherlink.com 1.10,2013-02-28 12:20:00,
2013-02-28 04:35:00,48.1,47.0,30.35,SSW,197,2.0,-999.0,94,-99.99,,,0.00,weatherlink.com 1.10,2013-02-28 12:35:00,
2013-02-28 04:50:00,48.2,47.0,30.35,SSW,197,3.0,-999.0,94,-99.99,,,0.00,weatherlink.com 1.10,2013-02-28 12:50:00,
2013-02-28 05:05:00,48.1,47.0,30.36,South,176,0.0,-999.0,94,-99.99,,,0.00,weatherlink.com 1.10,2013-02-28 13:05:00,
2013-02-28 05:19:00,47.8,46.0,30.36,South,177,0.0,-999.0,94,-99.99,,,0.00,weatherlink.com 1.10,2013-02-28 13:19:00,
2013-02-28 05:36:00,47.6,46.0,30.36,South,177,1.0,-999.0,94,-99.99,,,0.00,weatherlink.com 1.10,2013-02-28 13:36:00,
2013-02-28 05:51:00,47.5,46.0,30.36,SW,222,0.0,-999.0,94,-99.99,,,0.00,weatherlink.com 1.10,2013-02-28 13:51:00,
2013-02-28 06:05:00,47.4,46.0,30.37,SW,221,1.0,-999.0,94,-99.99,,,0.00,weatherlink.com 1.10,2013-02-28 14:05:00,
2013-02-28 06:34:00,48.0,47.0,30.37,WSW,238,2.0,-999.0,95,-99.99,,,0.00,weatherlink.com 1.10,2013-02-28 14:34:00,
2013-02-28 06:50:00,48.4,47.0,30.37,WSW,238,1.0,-999.0,94,-99.99,,,0.00,weatherlink.com 1.10,2013-02-28 14:50:00,
2013-02-28 07:05:00,48.5,47.0,30.38,WSW,238,2.0,-999.0,94,-99.99,,,0.00,weatherlink.com 1.10,2013-02-28 15:05:00,
2013-02-28 07:19:00,48.9,48.0,30.38,WSW,238,2.0,-999.0,95,-99.99,,,0.00,weatherlink.com 1.10,2013-02-28 15:19:00,
2013-02-28 07:34:00,49.8,49.0,30.39,SW,232,0.0,-999.0,95,-99.99,,,0.00,weatherlink.com 1.10,2013-02-28 15:34:00,
2013-02-28 07:49:00,50.3,49.0,30.39,SSW,207,2.0,-999.0,94,-99.99,,,0.00,weatherlink.com 1.10,2013-02-28 15:49:00,
2013-02-28 08:05:00,50.5,49.0,30.39,SW,220,1.0,-999.0,95,-99.99,,,0.00,weatherlink.com 1.10,2013-02-28 16:05:00,
2013-02-28 08:20:00,51.0,50.0,30.39,SSW,211,0.0,-999.0,95,-99.99,,,0.00,weatherlink.com 1.10,2013-02-28 16:20:00,
2013-02-28 08:36:00,51.2,49.0,30.40,SE,140,2.0,-999.0,93,-99.99,,,0.00,weatherlink.com 1.10,2013-02-28 16:36:00,
2013-02-28 08:50:00,51.2,50.0,30.40,SE,130,1.0,-999.0,94,-99.99,,,0.00,weatherlink.com 1.10,2013-02-28 16:50:00,
2013-02-28 09:04:00,51.1,49.0,30.41,SSW,202,1.0,-999.0,93,-99.99,,,0.00,weatherlink.com 1.10,2013-02-28 17:04:00,
2013-02-28 09:20:00,52.4,50.0,30.41,SW,219,5.0,-999.0,92,-99.99,,,0.00,weatherlink.com 1.10,2013-02-28 17:20:00,
2013-02-28 09:34:00,53.5,51.0,30.42,WSW,244,2.0,-999.0,92,-99.99,,,0.00,weatherlink.com 1.10,2013-02-28 17:34:00,
2013-02-28 09:51:00,54.5,52.0,30.42,SSW,213,6.0,-999.0,90,-99.99,,,0.00,weatherlink.com 1.10,2013-02-28 17:51:00,
2013-02-28 10:06:00,55.3,52.0,30.41,SSE,167,7.0,-999.0,88,-99.99,,,0.00,weatherlink.com 1.10,2013-02-28 18:06:00,
2013-02-28 10:20:00,54.4,51.0,30.42,South,184,9.0,-999.0,89,-99.99,,,0.00,weatherlink.com 1.10,2013-02-28 18:20:00,
2013-02-28 10:35:00,55.3,52.0,30.42,SSW,197,8.0,-999.0,88,-99.99,,,0.00,weatherlink.com 1.10,2013-02-28 18:35:00,
2013-02-28 10:50:00,54.2,51.0,30.42,SSE,167,10.0,-999.0,87,-99.99,,,0.00,weatherlink.com 1.10,2013-02-28 18:50:00,
2013-02-28 11:05:00,54.3,51.0,30.43,SSE,161,6.0,-999.0,87,-99.99,,,0.00,weatherlink.com 1.10,2013-02-28 19:05:00,
2013-02-28 11:20:00,54.9,52.0,30.42,SSE,167,9.0,-999.0,88,-99.99,,,0.00,weatherlink.com 1.10,2013-02-28 19:20:00,
2013-02-28 11:35:00,54.2,51.0,30.42,South,183,6.0,-999.0,88,-99.99,,,0.00,weatherlink.com 1.10,2013-02-28 19:35:00,
2013-02-28 11:50:00,53.7,51.0,30.42,SW,225,5.0,-999.0,89,-99.99,,,0.00,weatherlink.com 1.10,2013-02-28 19:50:00,
2013-02-28 12:05:00,53.2,50.0,30.42,SSE,161,9.0,-999.0,89,-99.99,,,0.00,weatherlink.com 1.10,2013-02-28 20:05:00,
2013-02-28 12:21:00,53.0,51.0,30.42,SSW,213,5.0,-999.0,91,-99.99,,,0.00,weatherlink.com 1.10,2013-02-28 20:21:00,
2013-02-28 12:35:00,54.3,52.0,30.41,West,261,3.0,-999.0,90,-99.99,,,0.00,weatherlink.com 1.10,2013-02-28 20:35:00,
2013-02-28 12:50:00,53.9,51.0,30.42,SW,225,3.0,-999.0,88,-99.99,,,0.00,weatherlink.com 1.10,2013-02-28 20:50:00,
2013-02-28 13:06:00,53.6,50.0,30.41,South,188,7.0,-999.0,88,-99.99,,,0.00,weatherlink.com 1.10,2013-02-28 21:06:00,
2013-02-28 13:21:00,53.4,50.0,30.41,SSW,207,5.0,-999.0,89,-99.99,,,0.00,weatherlink.com 1.10,2013-02-28 21:21:00,
2013-02-28 13:35:00,52.5,49.0,30.41,SW,221,4.0,-999.0,89,-99.99,,,0.00,weatherlink.com 1.10,2013-02-28 21:35:00,
2013-02-28 13:50:00,52.8,49.0,30.41,SW,220,11.0,-999.0,88,-99.99,,,0.00,weatherlink.com 1.10,2013-02-28 21:50:00,
2013-02-28 14:06:00,53.1,50.0,30.40,South,172,11.0,-999.0,88,-99.99,,,0.00,weatherlink.com 1.10,2013-02-28 22:06:00,
2013-02-28 14:20:00,53.3,50.0,30.40,SW,228,5.0,-999.0,89,-99.99,,,0.00,weatherlink.com 1.10,2013-02-28 22:20:00,
2013-02-28 15:06:00,56.5,51.0,30.39,South,185,9.0,-999.0,81,-99.99,,,0.00,weatherlink.com 1.10,2013-02-28 23:06:00,
2013-02-28 15:20:00,54.1,49.0,30.39,South,189,10.0,-999.0,84,-99.99,,,0.00,weatherlink.com 1.10,2013-02-28 23:20:00,
2013-02-28 15:34:00,54.5,50.0,30.39,SSW,210,6.0,-999.0,86,-99.99,,,0.00,weatherlink.com 1.10,2013-02-28 23:34:00,
2013-02-28 15:50:00,54.7,51.0,30.39,SSW,199,5.0,-999.0,86,-99.99,,,0.00,weatherlink.com 1.10,2013-02-28 23:50:00,
2013-02-28 16:04:00,54.9,50.0,30.38,South,180,4.0,-999.0,83,-99.99,,,0.00,weatherlink.com 1.10,2013-03-01 00:04:00,
2013-02-28 16:21:00,53.1,48.0,30.39,SSE,167,8.0,-999.0,84,-99.99,,,0.00,weatherlink.com 1.10,2013-03-01 00:21:00,
2013-02-28 16:36:00,52.5,48.0,30.39,SSW,200,7.0,-999.0,85,-99.99,,,0.00,weatherlink.com 1.10,2013-03-01 00:36:00,
2013-02-28 16:50:00,51.9,48.0,30.39,SW,216,5.0,-999.0,87,-99.99,,,0.00,weatherlink.com 1.10,2013-03-01 00:50:00,
2013-02-28 17:05:00,51.5,48.0,30.39,SW,230,4.0,-999.0,88,-99.99,,,0.00,weatherlink.com 1.10,2013-03-01 01:05:00,
2013-02-28 17:20:00,50.5,47.0,30.39,SSW,209,3.0,-999.0,88,-99.99,,,0.00,weatherlink.com 1.10,2013-03-01 01:20:00,
2013-02-28 17:35:00,49.5,46.0,30.39,WSW,248,6.0,-999.0,89,-99.99,,,0.00,weatherlink.com 1.10,2013-03-01 01:35:00,
2013-02-28 17:50:00,48.8,46.0,30.39,WSW,238,3.0,-999.0,90,-99.99,,,0.00,weatherlink.com 1.10,2013-03-01 01:50:00,
2013-02-28 18:06:00,48.7,46.0,30.39,WSW,240,3.0,-999.0,91,-99.99,,,0.00,weatherlink.com 1.10,2013-03-01 02:06:00,
2013-02-28 18:21:00,48.5,46.0,30.40,SW,223,3.0,-999.0,92,-99.99,,,0.00,weatherlink.com 1.10,2013-03-01 02:21:00,
2013-02-28 18:36:00,48.6,46.0,30.40,SSW,205,5.0,-999.0,92,-99.99,,,0.00,weatherlink.com 1.10,2013-03-01 02:36:00,
2013-02-28 18:50:00,48.7,47.0,30.40,South,188,3.0,-999.0,93,-99.99,,,0.00,weatherlink.com 1.10,2013-03-01 02:50:00,
2013-02-28 19:05:00,48.2,46.0,30.40,South,189,5.0,-999.0,92,-99.99,,,0.00,weatherlink.com 1.10,2013-03-01 03:05:00,
2013-02-28 19:20:00,47.7,46.0,30.41,SW,214,5.0,-999.0,92,-99.99,,,0.00,weatherlink.com 1.10,2013-03-01 03:20:00,
2013-02-28 19:35:00,47.3,45.0,30.41,SSW,210,2.0,-999.0,92,-99.99,,,0.00,weatherlink.com 1.10,2013-03-01 03:35:00,
2013-02-28 19:50:00,46.6,44.0,30.41,SW,216,2.0,-999.0,92,-99.99,,,0.00,weatherlink.com 1.10,2013-03-01 03:50:00,
2013-02-28 20:05:00,47.2,46.0,30.42,WSW,245,4.0,-999.0,94,-99.99,,,0.00,weatherlink.com 1.10,2013-03-01 04:05:00,
2013-02-28 20:20:00,48.0,46.0,30.42,South,188,4.0,-999.0,94,-99.99,,,0.00,weatherlink.com 1.10,2013-03-01 04:20:00,
2013-02-28 20:36:00,48.3,46.0,30.42,SW,224,2.0,-999.0,93,-99.99,,,0.00,weatherlink.com 1.10,2013-03-01 04:36:00,
2013-02-28 20:50:00,48.2,46.0,30.42,SSW,209,3.0,-999.0,93,-99.99,,,0.00,weatherlink.com 1.10,2013-03-01 04:50:00,
2013-02-28 21:06:00,48.2,46.0,30.42,SW,227,3.0,-999.0,93,-99.99,,,0.00,weatherlink.com 1.10,2013-03-01 05:06:00,
2013-02-28 21:21:00,48.2,46.0,30.42,SW,225,3.0,-999.0,93,-99.99,,,0.00,weatherlink.com 1.10,2013-03-01 05:21:00,
2013-02-28 21:35:00,48.2,47.0,30.43,SSW,208,5.0,-999.0,94,-99.99,,,0.00,weatherlink.com 1.10,2013-03-01 05:35:00,
2013-02-28 21:50:00,48.6,47.0,30.42,SSW,211,3.0,-999.0,94,-99.99,,,0.00,weatherlink.com 1.10,2013-03-01 05:50:00,
2013-02-28 22:05:00,48.5,47.0,30.42,SW,225,5.0,-999.0,93,-99.99,,,0.00,weatherlink.com 1.10,2013-03-01 06:05:00,
2013-02-28 22:20:00,47.7,46.0,30.42,SW,227,3.0,-999.0,93,-99.99,,,0.00,weatherlink.com 1.10,2013-03-01 06:20:00,
2013-02-28 22:35:00,46.9,45.0,30.43,SW,231,3.0,-999.0,93,-99.99,,,0.00,weatherlink.com 1.10,2013-03-01 06:35:00,
2013-02-28 22:51:00,46.8,45.0,30.43,WSW,238,3.0,-999.0,93,-99.99,,,0.00,weatherlink.com 1.10,2013-03-01 06:51:00,
2013-02-28 23:05:00,46.9,45.0,30.42,SW,219,3.0,-999.0,94,-99.99,,,0.00,weatherlink.com 1.10,2013-03-01 07:05:00,
2013-02-28 23:21:00,46.8,45.0,30.43,SSW,203,4.0,-999.0,94,-99.99,,,0.00,weatherlink.com 1.10,2013-03-01 07:21:00,
2013-02-28 23:35:00,47.1,46.0,30.43,WSW,238,6.0,-999.0,94,-99.99,,,0.00,weatherlink.com 1.10,2013-03-01 07:35:00,
2013-02-28 23:50:00,47.3,46.0,30.43,WSW,238,4.0,-999.0,94,-99.99,,,0.00,weatherlink.com 1.10,2013-03-01 07:50:00,